Regional Weather Roundup
Issued by NWS Northern Indiana

Home | Current Version | Previous Version | Text Only | Print | Product List | Glossary Off
Versions: 1 2 3 4 5 6 7 8 9 10 11 12 13 14 15 16 17 18 19 20 21 22 23 24 25 26 27 28 29 30 31 32 33 34 35 36 37 38 39 40 41 42 43 44 45 46 47 48 49 50

000
ASUS43 KIWX 222100
RWRIWX

KIWX WEATHER ROUNDUP
NATIONAL WEATHER SERVICE NORTHERN INDIANA
400 PM EST MON DEC 22 2014

NOTE: "FAIR" INDICATES FEW OR NO CLOUDS BELOW 12,000 FEET WITH NO
SIGNIFICANT WEATHER AND/OR OBSTRUCTIONS TO VISIBILITY.

* THESE STATIONS ARE NOT UNDER NWS QUALITY CONTROL. THEY ALSO MAY NOT
  REPORT WEATHER SUCH AS PRECIPITATION OR FOG.

INZ001>027-222200-
NORTHERN INDIANA

CITY           SKY/WX    TMP DP  RH WIND       PRES   REMARKS
GARY*          LGT RAIN  39  34  81 SE12      29.74F
SOUTH BEND     CLOUDY    37  33  85 SE14      29.80F FOG
ELKHART*       CLOUDY    36  32  87 E10       29.81F FOG
GOSHEN         CLOUDY    36  33  89 SE13      29.81F FOG
ANGOLA*        CLOUDY    36  30  80 E8        29.85S
FORT WAYNE     CLOUDY    38  33  82 E9        29.85F HAZE
PERU/GRISSOM   CLOUDY    39  39 100 SE12      29.78F

$$
INZ028>050-222200-
CENTRAL INDIANA

CITY           SKY/WX    TMP DP  RH WIND       PRES   REMARKS
LAFAYETTE      CLOUDY    41  38  89 SE10      29.74F
KOKOMO*        CLOUDY    37  34  87 SE10      29.79S
MUNCIE*        CLOUDY    42  36  79 SE12      29.80F
INDIANAPOLIS   LGT RAIN  44  38  79 E8        29.75F

$$
MIZ043>046-050>051-056>058-064>065-071>073-077>080-222200-
SOUTHWEST LOWER MICHIGAN

CITY           SKY/WX    TMP DP  RH WIND       PRES   REMARKS
BATTLE CREEK   CLOUDY    39  30  70 E9        29.85F
BENTON HARBOR  MIX PCPN  35  33  92 E14       29.78F FOG     WCI  26
COLDWATER*     CLOUDY    38  30  74 SE9G18    29.86S
HILLSDALE*     MOCLDY    37  31  77 E13       29.87S
HOLLAND        LGT RAIN  37  31  78 E12       29.83F
GRAND RAPIDS   LGT RAIN  35  30  82 E15       29.86F HAZE    WCI  25
KALAMAZOO      LGT RAIN  39  30  70 SE9       29.84F
STURGIS*       MIX PCPN  36  34  93 E9        29.83F
THREE RIVERS*  DRIZZLE   37  32  83 SE9       29.84F

$$
OHZ001>008-015>018-024>025-222200-
NORTHWEST OHIO

CITY           SKY/WX    TMP DP  RH WIND       PRES   REMARKS
DEFIANCE       CLOUDY    38  32  79 E9        29.89F
FINDLAY        CLOUDY    41  33  73 E9        29.88F
TOLEDO EXPRESS CLOUDY    37  29  72 E9        29.91F
TOLEDO METCALF MOCLDY    37  29  72 NE8       29.93F
LIMA           CLOUDY    42  33  70 E9        29.86F HAZE

$$
AND FOR LAKE MICHIGAN COASTAL AND OPEN LAKE BUOY OBSERVATIONS

STATION/POSITION TEMP    WIND        PRES    VSBY  WAVE
                 AIR SEA DIR/SP/G                  HT/PER
                 (F)     (DEG/KT/KT) (MB)    (MI)  (FT/S)
CALUMET HARBOR    36     100/  5/  9 1006.0F
SAINT JOSEPH      35      70/  3/  9 1009.8F

$$
&&



USA.gov is the U.S. government's official web portal to all federal, state and local government web resources and services.